Location: Apeadero de Los Molinos-Guadarrama
(40.7091°N, 4.0689°W)
Time: 18:36:25
(UTC+00:00)

Envisat - Visible Passes

Search period start: 24 September 2021 00:00
Search period end: 04 October 2021 00:00
Orbit: 764 x 766 km, 98.2° (Epoch: 23 September)

Date Brightness Start Highest point End Pass type
(mag) Time Alt. Az. Time Alt. Az. Time Alt. Az.
24 Sep 5.2 04:38:23 10° NE 04:42:42 28° E 04:47:01 10° SSE visible
25 Sep 6.1 04:03:33 10° ENE 04:05:30 12° E 04:07:27 10° ESE visible
26 Sep 4.1 05:03:14 10° NNE 05:08:10 48° E 05:13:04 10° S visible
27 Sep 5.5 04:27:13 10° NE 04:31:07 22° E 04:34:58 10° SE visible
28 Sep 3.1 05:28:27 10° NNE 05:33:33 86° ESE 05:38:37 10° SSW visible
29 Sep 4.6 04:51:53 10° NNE 04:56:37 38° E 05:01:19 10° SSE visible
30 Sep 5.9 04:16:12 10° NE 04:19:29 17° E 04:22:46 10° SE visible
01 Oct 3.4 05:16:57 10° NNE 05:22:02 68° ESE 05:27:04 10° S visible
02 Oct 5.0 04:40:36 10° NE 04:45:02 30° E 04:49:27 10° SSE visible
03 Oct 6.0 04:05:28 10° ENE 04:07:51 13° E 04:10:13 10° ESE visible
03 Oct 3.0 05:42:17 10° N 05:47:21 70° WNW 05:52:23 10° SSW visible
